Location: Newark
(51.0000°N, 11.4100°E)
Time: 19:30:24
(UTC+00:00)

N. Korean satellite - Pass Details

Date: 24 October 2019
Orbit: 456 x 506 km, 97.2° (Epoch: 20 November)

Event Time Altitude Azimuth Distance (km) Brightness Sun altitude
Rises 16:51:23 0° 191° (S) 2,471 10.4 -8.0°
Reaches altitude 10° 16:53:36 10° 203° (SSW) 1,607 9.6 -8.4°
Maximum altitude 16:56:37 28° 265° (W) 896 8.9 -8.9°
Drops below altitude 10° 16:59:43 10° 326° (NNW) 1,638 9.6 -9.3°
Sets 17:01:59 0° 338° (NNW) 2,529 10.4 -9.7°
